Temp
17 16 15 16 16 16 17 16 17 16 16 16 15 15 16 16 15 15 14 14 14 14
15 15 14 15 17 16 18 17 17 18 17 16 15 15 15 14 14 14 14 14 14 14
15 15 16 16 16 16 16 17 16 16 15 14 14 14 14 14 14 14 13 13 13 13
14 15 15 15 15 15 15 15 15 14 14 14 14 14 14 13 13 13 13 12 12 12
14 14 14 14 14 14 14 14 14 13 13 13 13 13 12 12 12 12 12 12 11 11
13 13 13 13 13 13 13 12 12 12 12 11 11 11 11 11 11 11 11 11 10 10
12 12 12 12 12 12 12 12 12 11 11 11 10 10 10 10 10 10 10 10 10 9
11 11 11 11 11 10 10 11 11 11 10 10 10 10 10 10 10 9 9 9 9 8
10 10 10 10 10 10 10 10 10 10 10 10 9 9 9 9 9 9 8 8 8 7
9 9 9 9 9 9 9 9 9 9 9 9 8 8 8 8 8 8 8 7 7 6
8 8 8 8 8 9 8 8 8 8 8 8 8 8 8 7 7 7 7 7 6 6
6 7 7 7 7 7 8 8 8 8 7 7 7 7 7 7 6 6 6 6 5 5
6 6 7 6 6 6 6 7 7 7 7 7 7 6 6 6 5 5 5 5 4 4
6 6 6 6 5 5 5 5 6 6 6 6 6 5 5 5 4 4 3 3 3 3
Height
760 763 768 770 771 774 775 776 778 779 780 780 784 787 787 790 789 790 790 795 798 801
762 763 763 764 766 769 769 770 772 772 772 774 777 779 781 783 784 785 786 790 793 795
762 761 760 762 763 764 765 765 766 765 768 770 772 774 776 777 779 780 783 788 788 791
760 761 761 762 763 764 764 763 763 764 766 766 770 771 771 774 775 779 779 785 786 787
761 761 761 760 761 761 761 760 761 761 761 763 764 767 768 769 774 775 775 780 784 786
761 763 764 763 762 761 760 761 760 761 761 762 764 764 767 768 770 772 774 777 781 782
763 764 764 763 761 761 760 759 759 758 761 762 766 764 766 768 769 771 772 774 777 778
763 765 764 761 762 761 761 758 757 757 758 759 760 762 764 766 767 770 771 771 773 774
764 763 764 760 759 761 758 758 758 757 756 754 756 757 760 764 765 765 766 769 769 774
768 763 763 760 760 759 756 755 756 756 754 754 754 755 757 760 760 761 762 765 765 766
761 761 761 761 754 758 758 751 753 753 753 750 748 750 753 756 758 759 761 761 762 762
766 763 759 756 756 755 753 752 750 749 748 744 744 749 750 750 752 756 757 759 762 762
760 759 757 756 754 753 752 751 746 743 742 740 742 746 744 746 747 746 753 755 754 757
758 757 755 754 750 747 745 745 741 736 736 738 737 739 739 742 742 741 747 744 747 751
Wind_Speed
13 19 26 28 25 26 32 31 29 36 38 33 34 31 28 31 28 25 21 23 24 21
18 16 20 25 31 33 27 24 29 30 30 27 28 28 28 30 29 24 23 24 23 21
3 2 3 4 6 9 10 12 15 15 17 18 24 25 27 26 24 23 22 23 23 22
1 1 1 2 3 4 8 10 11 13 16 16 20 21 23 23 22 21 23 22 22 20
6 6 6 4 4 6 7 8 10 13 16 18 19 21 21 22 22 23 22 20 19 18
8 6 5 6 8 7 6 8 7 10 12 14 16 18 20 22 21 21 19 20 19 16
9 9 7 7 8 8 8 8 9 9 10 11 13 14 16 17 17 18 18 17 16 15
10 9 9 8 9 9 9 8 10 10 12 13 14 15 16 17 17 18 17 17 15 15
10 10 10 11 11 12 12 11 12 13 14 15 16 17 19 20 20 19 18 17 14 14
9 10 11 11 12 14 14 13 15 16 16 16 17 17 18 19 19 19 19 17 16 15
18 16 14 13 11 14 16 16 18 20 19 19 19 19 19 19 18 18 19 19 18 17
15 16 16 16 17 16 16 18 21 21 20 20 21 22 21 21 24 21 21 20 20 20
21 20 19 15 15 16 16 19 19 19 21 21 22 24 23 23 25 24 24 22 21 22
22 23 21 21 19 16 18 18 18 19 21 22 23 24 24 25 26 27 25 22 21 22
Wind_Direction
257 268 255 239 239 246 251 253 242 248 246 252 242 241 238 226 230 235 228 222 219 233
261 245 239 243 239 244 247 236 235 236 242 239 237 238 231 226 226 220 219 223 224 226
159 235 240 231 256 255 246 249 239 238 240 239 235 230 219 222 213 213 217 223 215 216
44 328 288 242 239 250 254 243 251 235 237 234 230 222 217 224 223 215 211 213 214 213
17 359 347 327 287 264 268 262 245 234 227 229 228 225 221 218 216 213 211 214 214 213
12 354 335 314 299 293 270 263 247 246 237 235 230 224 223 222 222 218 216 212 212 211
2 341 326 308 300 283 274 256 242 235 234 231 235 225 222 224 216 213 214 215 216 213
4 346 325 312 295 282 266 251 242 232 231 229 225 222 214 216 216 213 209 213 216 213
7 355 332 317 308 288 280 270 248 234 229 226 226 222 218 218 214 212 214 217 214 217
349 355 340 322 289 282 275 263 256 251 241 241 233 231 224 218 217 214 215 217 215 214
344 338 330 324 322 287 272 269 261 257 247 241 239 240 238 228 224 221 221 220 219 218
332 331 333 330 325 316 295 277 260 258 253 244 242 240 235 222 219 223 222 223 222 218
331 328 327 327 323 316 299 289 273 258 257 253 247 240 237 227 221 220 228 231 231 225
327 325 322 317 322 318 313 300 280 272 268 256 250 244 243 236 221 222 221 230 229 224